Regional Weather Roundup
Issued by NWS Wilmington, NC

Home | Current Version | Previous Version | Text Only | Print | Product List | Glossary On
Versions: 1 2 3 4 5 6 7 8 9 10 11 12 13 14 15 16 17 18 19 20 21 22 23 24 25 26 27 28 29 30 31 32 33 34 35 36 37 38 39 40 41 42 43 44 45 46 47 48 49 50
000
ASUS42 KILM 220413
RWRILM
RWRILM
REGIONAL HOURLY WEATHER ROUNDUP
NATIONAL WEATHER SERVICE WILMINGTON NC
1200 AM EDT WED MAY 22 2019

NOTE: "FAIR" INDICATES FEW OR NO CLOUDS BELOW 12,000 FEET WITH NO
SIGNIFICANT WEATHER AND/OR OBSTRUCTIONS TO VISIBILITY.

...............WFO WILMINGTON COUNTY WARNING AREA...............

......COASTAL NC AND SC COUNTIES......

CITY           SKY/WX    TMP DP  RH WIND       PRES   REMARKS
WILMINGTON     MOCLDY    73  66  78 E10       30.06R
N MYRTLE BEACH FAIR      77  76  96 E6        30.03R
MYRTLE BEACH   FAIR      76  75  97 S5        30.02R

......INLAND NC AND SC COUNTIES.......

CITY           SKY/WX    TMP DP  RH WIND       PRES   REMARKS
LUMBERTON      NOT AVBL
ELIZABETHTOWN  MOCLDY    73  69  87 E7        30.05R
WHITEVILLE       N/A     74  72  94 E3        30.03S
FLORENCE       FAIR      74  69  85 CALM      30.01R
DARLINGTON     MOCLDY    76  65  68 NE6       30.03R
KINGSTREE      FAIR      73  72  94 SE3       30.01S
HARTSVILLE     FAIR      73  64  73 E3        30.03R
BENNETTSVILLE  FAIR      72  64  78 NE5       30.03R
CONWAY         FAIR      72  70  94 CALM      30.02R
GEORGETOWN     FAIR      72  70  94 CALM      30.03R FOG
MARION         MOCLDY    73  68  83 SE3       30.02R

....................REST OF NORTH CAROLINA......................

.........EASTERN NC.........

CITY           SKY/WX    TMP DP  RH WIND       PRES   REMARKS
CAPE HATTERAS  FAIR      67  54  63 NE6       30.10R
JACKSONVILLE   CLOUDY    71  61  70 E8        30.09S
MOREHEAD CITY  CLOUDY    70  60  70 NE8       30.10R
KENANSVILLE    CLOUDY    72  63  73 E8        30.09R
NEW BERN       FAIR      68  58  70 E7        30.11R
ELIZABETH CITY FAIR      64  55  72 E5        30.12R

.........CENTRAL NC.........

CITY           SKY/WX    TMP DP  RH WIND       PRES   REMARKS
RALEIGH DURHAM FAIR      71  57  61 E10G20    30.09R
ROCKY MOUNT    FAIR      68  59  73 E6        30.11R
ROANOKE RAPIDS NOT AVBL
FAYETTEVILLE   FAIR      73  60  63 E8        30.04R
HOFFMAN        FAIR      75  56  53 E8        30.04R

.........WESTERN NC.........

CITY           SKY/WX    TMP DP  RH WIND       PRES   REMARKS
CHARLOTTE      FAIR      78  59  51 E6        30.04S
GREENSBORO     FAIR      69  58  67 E10       30.09R
HICKORY        NOT AVBL
BOONE          NOT AVBL
ASHEVILLE      NOT AVBL

.....................REST OF SOUTH CAROLINA.....................

.........EASTERN SC.........

CITY           SKY/WX    TMP DP  RH WIND       PRES   REMARKS
CHARLESTON     FAIR      75  73  93 S7        30.01R
BEAUFORT MCAS  FAIR      80  76  87 S3        30.01R
HILTON HEAD    FAIR      79  73  83 S8        30.01R

.........CENTRAL SC.........

CITY           SKY/WX    TMP DP  RH WIND       PRES   REMARKS
COLUMBIA       FAIR      75  63  66 CALM      29.99R
ORANGEBURG     FAIR      76  66  71 SE3       30.00R
SUMTER SHAW    FAIR      73  64  72 NE3       30.00R

.........WESTERN SC.........

CITY           SKY/WX    TMP DP  RH WIND       PRES   REMARKS
GREENVILLE     NOT AVBL
ROCK HILL      FAIR      67  63  87 CALM      30.04R
ANDERSON       FAIR      70  61  73 NE5       30.01R
CLEMSON        NOT AVBL
GREENWOOD      FAIR      70  65  84 CALM      30.02S


...................COASTAL AND OFFSHORE REPORTS..................

................LOCAL PIERS AND NC RESERVE................


STATION/POSITION TIME  SKY/WX   TEMP    WIND        PRES    VSBY
                                AIR SEA DIR/SP/G
                 (UTC)          (F)     (DEG/KT/KT) (MB)    (MI)
JOHNY MRCER PIER 0336            74 76   70/ 19/ 23 1018.0R
NC RESRV MASNBRO NOT AVBL
OCEAN CREST PIER NOT AVBL
SPRINGMAID  PIER 0348            77                   N/A


................COASTAL AND OFFSHORE BUOYS................


STATION/POSITION TIME  SKY/WX   TEMP    WIND        PRES    VSBY
                                AIR SEA DIR/SP/G
                 (UTC)          (F)     (DEG/KT/KT) (MB)    (MI)
DIMNDSHOAL 41025 NOT AVBL
CAPE LOOKOUT     0400            71      50/ 19/ 20 1019.3R
ONSLOW BAY 41036 NOT AVBL
ONSLOW BAY 41064 0308            74 76   90/ 17/ 23 1017.3R
ONSLOW BAY 41159 0400               76                N/A
WVE H/P(F/S)=  4/ 5

MASNBO INL 41110 0400               75                N/A
WVE H/P(F/S)=  4/ 5

WILM HARBR 41108 0400               77                N/A
WVE H/P(F/S)=  2/ 7

27SE WRITB 41037 0308            75 77   90/ 16/ 21 1017.3R
FRYING PAN 41013 0400            77      50/  4/  4 1017.7
SUNST NRSH 41024 0308            76 78  110/  8/ 14 1016.5R
CAPRS NRSH 41029 0308            77 77  200/  6/ 10 1015.8R
EDISTO     41004 0400               77  200/  6/  6 1016.9


..........OFFSHORE BUOYS BEYOND 100 NM OFFSHORE...........
.....IN A TRIANGLE---HAT TO BERMUDA TO BAHAMAS TO HAT.....


STATION/POSITION TIME  SKY/WX   TEMP    WIND        PRES    VSBY
                                AIR SEA DIR/SP/G
                 (UTC)          (F)     (DEG/KT/KT) (MB)    (MI)
150E HAT   41001 0400            73 77  360/ 16/ 19 1017.0
W BERMUDA  41048 0400            73     330/ 10/ 14 1016.3
ATLANTIC S 41049 0350               78  180/ 14/ 17 1018.1F
WVE H/P(F/S)=  4/ 8 SWL H/P/D(F/S/D)=  2/110/ 8

E BAHAMAS  41046 0400            76 81  140/ 12/ 14 1016.3
NE BAHAMAS 41047 0400            77 79   40/  8/ 10 1016.7
120E CANVRL41010 0400            78 79  130/ 10/ 12 1017.5

END



USA.gov is the U.S. government's official web portal to all federal, state and local government web resources and services.